1483567200.38,30669,7.94,71272.0,-15.07,-15.75,-15.75,0,*69
1483567201.6,30670,7.94,71276.8,-15.07,-15.75,-15.75,0,*61
1483567202.89,30671,7.94,71284.0,-15.05,-15.81,-15.81,0,*62
1483567204.16,30672,7.94,71292.5,-15.05,-15.81,-15.75,0,*6A
1483567205.43,30673,7.94,71296.8,-15.05,-15.81,-15.75,0,*6B
1483567206.65,30674,7.94,71298.8,-15.03,-15.75,-15.75,0,*61
1483567207.94,30675,7.94,71298.0,-15.05,-15.81,-15.81,0,*66
1483567209.19,30676,7.94,71302.3,-15.05,-15.75,-15.75,0,*65
1483567210.46,30677,7.94,71310.0,-15.05,-15.75,-15.89,0,*67
1483567211.74,30678,7.94,71314.0,-15.05,-15.75,-15.81,0,*60
1483567213.01,30679,7.94,71312.0,-15.03,-15.89,-15.81,0,*64
1483567214.3,30680,7.94,71320.3,-15.05,-15.89,-15.89,0,*6C
1483567215.57,30681,7.94,71314.3,-15.05,-15.89,-15.95,0,*60
1483567216.79,30682,7.94,71316.8,-15.03,-15.95,-15.95,0,*68
1483567218.04,30683,7.94,71312.3,-15.05,-15.95,-15.95,0,*6F
1483567219.28,30684,7.94,71304.5,-15.05,-15.95,-15.95,0,*68
1483567220.53,30685,7.94,71294.0,-15.05,-15.95,-15.95,0,*69
1483567221.74,30686,7.94,71294.3,-15.03,-15.95,-15.99,0,*60
1483567223.01,30687,7.94,71280.3,-15.05,-15.99,-16.09,0,*61
1483567224.24,30688,7.94,71236.5,-15.05,-15.99,-15.99,0,*64
1483567225.48,30689,7.94,71254.0,-15.03,-15.99,-16.09,0,*69
1483567226.77,30690,7.94,71260.3,-15.05,-16.09,-16.13,0,*66
1483567228.07,30691,7.94,71234.5,-15.05,-16.23,-16.23,0,*6C
1483567229.36,30692,7.94,71208.3,-15.05,-16.23,-16.23,0,*6F
1483567230.65,30693,7.94,71240.0,-15.05,-16.23,-16.27,0,*6A
1483567231.94,30694,7.94,71254.5,-15.05,-16.13,-16.27,0,*6E
1483567233.19,30695,7.94,71238.8,-15.05,-16.41,-16.37,0,*69
1483567234.4,30696,7.94,71206.3,-15.07,-16.41,-16.37,0,*68
1483567235.67,30697,7.94,71230.8,-15.05,-16.37,-16.27,0,*6B
1483567236.94,30698,7.94,71234.8,-15.05,-16.37,-16.27,0,*64
1483567238.23,30699,7.94,71246.0,-15.05,-16.27,-16.27,0,*64
1483567239.47,30700,7.94,71208.0,-15.05,-16.37,-16.37,0,*65
1483567240.7,30701,7.94,71234.8,-15.07,-16.27,-16.37,0,*67
1483567241.95,30702,7.94,71244.8,-15.09,-16.41,-16.45,0,*6F
1483567243.16,30703,7.94,71228.5,-15.07,-16.37,-16.41,0,*65
1483567244.42,30704,7.94,71184.8,-15.09,-16.31,-16.41,0,*6A
1483567245.66,30705,7.94,71182.0,-15.07,-16.27,-16.37,0,*63
1483567246.94,30706,7.94,71160.0,-15.09,-16.31,-16.31,0,*6F
1483567248.18,30707,7.94,71158.8,-15.07,-16.27,-16.37,0,*61
1483567249.45,30708,7.94,71194.8,-15.07,-16.13,-16.13,0,*6F
1483567250.74,30709,7.94,71166.0,-15.09,-16.27,-16.17,0,*63
1483567252.04,30710,7.94,71182.5,-15.09,-16.17,-16.17,0,*68
1483567253.28,30711,7.94,71194.0,-15.09,-16.03,-16.03,0,*69
1483567254.49,30712,7.94,71202.8,-15.07,-15.99,-15.99,0,*64
1483567255.76,30713,7.94,71196.3,-15.07,-16.09,-16.09,0,*65
1483567257.0,30714,7.94,71196.3,-15.07,-16.09,-15.99,0,*68
1483567258.27,30715,7.94,71168.8,-15.09,-16.03,-16.13,0,*6C
1483567259.57,30716,7.94,71182.0,-15.09,-16.13,-16.17,0,*6A
1483567260.84,30717,7.94,71174.3,-15.07,-16.13,-16.27,0,*66
1483567262.1,30718,7.94,71176.0,-15.07,-16.13,-16.27,0,*69
1483567263.37,30719,7.94,71188.3,-15.07,-16.13,-16.13,0,*6F
1483567264.57,30720,7.94,71182.3,-15.07,-15.99,-15.99,0,*65
1483567265.81,30721,7.94,71190.8,-15.09,-16.03,-16.03,0,*6A
1483567267.05,30722,7.94,71200.8,-15.07,-15.99,-16.09,0,*6D
1483567268.29,30723,7.94,71212.0,-15.09,-16.03,-16.03,0,*68
1483567269.58,30724,7.94,71222.8,-15.09,-16.27,-16.27,0,*6F
1483567270.79,30725,7.94,71228.8,-15.07,-15.99,-15.99,0,*60
1483567272.03,30726,7.94,71232.5,-15.09,-16.03,-15.95,0,*61
1483567273.27,30727,7.94,71242.8,-15.05,-15.99,-15.95,0,*6C
1483567274.47,30728,7.94,71240.0,-15.07,-15.99,-15.99,0,*6D
1483567275.68,30729,7.94,71230.3,-15.07,-15.99,-15.99,0,*6C
1483567276.98,30730,7.94,71218.5,-15.09,-16.17,-16.17,0,*6A
1483567278.21,30731,7.94,71216.0,-15.07,-15.99,-16.09,0,*6F
1483567279.42,30732,7.94,71230.3,-15.07,-15.99,-15.99,0,*66
1483567280.65,30733,7.94,71232.0,-15.07,-15.99,-16.09,0,*6D
1483567281.89,30734,7.94,71238.0,-15.07,-15.99,-16.09,0,*6A
1483567283.16,30735,7.94,71248.8,-15.09,-16.03,-16.13,0,*6E
1483567284.36,30736,7.94,71248.0,-15.07,-15.99,-15.99,0,*62
1483567285.56,30737,7.94,71268.3,-15.07,-15.99,-15.99,0,*63
1483567286.83,30738,7.94,71270.0,-15.07,-16.09,-16.13,0,*67
1483567288.12,30739,7.94,71264.5,-15.09,-16.27,-16.27,0,*63
1483567289.39,30740,7.94,71282.0,-15.07,-16.13,-16.27,0,*64
1483567290.6,30741,7.94,71264.8,-15.07,-16.37,-16.41,0,*63
1483567291.85,30742,7.94,71270.5,-15.09,-16.55,-16.55,0,*6F
1483567293.1,30743,7.94,71262.8,-15.09,-16.55,-16.55,0,*6E
1483567294.34,30744,7.94,71254.5,-15.07,-16.41,-16.51,0,*66
1483567295.59,30745,7.94,71246.3,-15.09,-16.55,-16.55,0,*68
1483567296.82,30746,7.94,71244.0,-15.09,-16.45,-16.45,0,*6B
1483567298.07,30747,7.94,71214.3,-15.09,-16.59,-16.59,0,*6A
1483567299.31,30748,7.94,71210.8,-15.09,-16.55,-16.45,0,*64
1483567300.58,30749,7.94,71200.0,-15.09,-16.41,-16.31,0,*63
1483567301.87,30750,7.94,71180.0,-15.09,-16.31,-16.31,0,*6C
1483567303.12,30751,7.94,71168.8,-15.09,-16.41,-16.41,0,*6D
1483567304.39,30752,7.94,71180.8,-15.09,-16.41,-16.31,0,*69
1483567305.67,30753,7.94,71192.8,-15.09,-16.31,-16.31,0,*6F
1483567306.92,30754,7.94,71176.3,-15.09,-16.41,-16.55,0,*6D
1483567308.21,30755,7.94,71184.8,-15.09,-16.31,-16.31,0,*69
1483567309.47,30756,7.94,71216.5,-15.09,-16.31,-16.41,0,*6D
1483567310.76,30757,7.94,71216.5,-15.09,-16.27,-16.27,0,*6B
1483567312.06,30758,7.94,71224.5,-15.13,-16.17,-16.17,0,*6F
1483567313.36,30759,7.94,71236.3,-15.13,-16.27,-16.17,0,*6D
1483567314.65,30760,7.94,71204.8,-15.13,-16.17,-16.27,0,*67
1483567315.89,30761,7.94,71238.5,-15.13,-16.03,-16.03,0,*65
1483567317.13,30762,7.94,71264.3,-15.13,-16.03,-16.03,0,*66
1483567318.43,30763,7.94,71268.3,-15.13,-16.13,-16.13,0,*67
1483567319.73,30764,7.94,71260.8,-15.13,-16.13,-16.13,0,*60
1483567320.97,30765,7.94,71266.5,-15.13,-16.45,-16.41,0,*65
1483567322.22,30766,7.94,71258.5,-15.13,-16.45,-16.59,0,*6F
1483567323.46,30767,7.94,71254.0,-15.15,-16.45,-16.51,0,*60
1483567324.73,30768,7.94,71248.3,-15.13,-16.41,-16.31,0,*6B
1483567325.98,30769,7.94,71240.0,-15.13,-16.41,-16.41,0,*6D
1483567327.23,30770,7.94,71248.5,-15.13,-16.41,-16.41,0,*65
1483567328.47,30771,7.94,71248.0,-15.13,-16.59,-16.55,0,*68
1483567329.71,30772,7.94,71252.8,-15.13,-16.45,-16.45,0,*67
1483567331.0,30773,7.94,71248.8,-15.13,-16.31,-16.31,0,*66
1483567332.26,30774,7.94,71236.0,-15.13,-16.31,-16.41,0,*66
1483567333.55,30775,7.94,71242.0,-15.13,-16.31,-16.27,0,*67
1483567334.84,30776,7.94,71248.0,-15.13,-16.31,-16.17,0,*67
1483567336.1,30777,7.94,71250.5,-15.13,-16.31,-16.41,0,*65
1483567337.35,30778,7.94,71242.5,-15.13,-16.41,-16.45,0,*69
1483567338.61,30779,7.94,71244.8,-15.13,-16.31,-16.41,0,*6B
1483567339.87,30780,7.94,71248.8,-15.15,-16.31,-16.31,0,*6C
1483567341.16,30781,7.94,71244.5,-15.13,-16.27,-16.27,0,*6B
1483567342.42,30782,7.94,71246.8,-15.15,-16.31,-16.31,0,*6E
1483567343.67,30783,7.94,71242.5,-15.13,-16.41,-16.41,0,*69
1483567344.88,30784,7.94,71238.8,-15.15,-16.37,-16.37,0,*68
1483567346.15,30785,7.94,71232.0,-15.13,-16.41,-16.31,0,*68
1483567347.39,30786,7.94,71224.0,-15.15,-16.31,-16.37,0,*6C
1483567348.69,30787,7.94,71216.8,-15.13,-16.13,-16.17,0,*69
1483567349.95,30788,7.94,71216.5,-15.15,-16.23,-16.31,0,*67
1483567351.25,30789,7.94,71222.0,-15.13,-16.17,-16.27,0,*60
1483567352.54,30790,7.94,71222.3,-15.13,-16.27,-16.27,0,*6B
1483567353.82,30791,7.94,71232.0,-15.13,-16.31,-16.31,0,*6A
1483567355.09,30792,7.94,71228.0,-15.15,-16.51,-16.51,0,*6F
1483567356.33,30793,7.94,71220.5,-15.13,-16.55,-16.55,0,*68
1483567357.58,30794,7.94,71222.3,-15.13,-16.55,-16.45,0,*6E
1483567358.82,30795,7.94,71224.5,-15.13,-16.45,-16.55,0,*6F
1483567360.06,30796,7.94,71220.3,-15.13,-16.45,-16.45,0,*6D
1483567361.3,30797,7.94,71228.3,-15.13,-16.41,-16.45,0,*68
1483567362.59,30798,7.94,71230.0,-15.13,-16.31,-16.31,0,*63
1483567363.83,30799,7.94,71240.5,-15.13,-16.41,-16.41,0,*62
1483567365.05,30800,7.94,71246.0,-15.15,-16.37,-16.37,0,*6B
1483567366.31,30801,7.94,71250.5,-15.15,-16.31,-16.31,0,*6A
1483567367.57,30802,7.94,71250.3,-15.15,-16.23,-16.31,0,*6A
1483567368.86,30803,7.94,71252.3,-15.13,-16.17,-16.27,0,*6D
1483567370.13,30804,7.94,71252.0,-15.13,-16.03,-16.27,0,*6F
1483567371.41,30805,7.94,71254.5,-15.15,-16.09,-16.09,0,*6E
1483567372.65,30806,7.94,71252.5,-15.15,-16.03,-16.09,0,*67
1483567373.92,30807,7.94,71256.3,-15.13,-15.99,-16.09,0,*60
1483567375.16,30808,7.94,71256.5,-15.15,-16.03,-16.09,0,*69
1483567376.37,30809,7.94,71260.3,-15.15,-16.03,-16.03,0,*62
1483567377.62,30810,7.94,71260.0,-15.13,-15.95,-15.95,0,*6C
1483567378.86,30811,7.94,71264.5,-15.13,-15.99,-15.99,0,*6D
1483567380.09,30812,7.94,71266.5,-15.13,-15.99,-15.99,0,*6E
1483567381.3,30813,7.94,71268.5,-15.15,-16.03,-16.03,0,*69
1483567382.54,30814,7.94,71268.8,-15.13,-15.99,-15.95,0,*64
1483567383.78,30815,7.94,71270.8,-15.13,-15.95,-15.99,0,*65
1483567385.02,30816,7.94,71272.3,-15.13,-15.99,-15.99,0,*6A
1483567386.25,30817,7.94,71270.0,-15.13,-15.99,-16.03,0,*6B
1483567387.5,30818,7.94,71260.3,-15.13,-16.03,-16.03,0,*64
1483567388.79,30819,7.94,71252.5,-15.13,-16.13,-16.13,0,*65
1483567390.06,30820,7.94,71242.3,-15.13,-16.13,-16.03,0,*6E
1483567391.33,30821,7.94,71236.8,-15.13,-16.03,-16.13,0,*6F
1483567392.57,30822,7.94,71238.0,-15.13,-16.03,-16.03,0,*6D
1483567393.81,30823,7.94,71244.8,-15.13,-16.03,-16.03,0,*6C
1483567395.09,30824,7.94,71246.3,-15.15,-16.09,-16.09,0,*6D
1483567396.33,30825,7.94,71268.3,-15.13,-16.03,-16.03,0,*6A
1483567397.57,30826,7.94,71284.5,-15.13,-16.03,-15.99,0,*69
1483567398.81,30827,7.94,71280.5,-15.13,-15.99,-16.03,0,*68
1483567400.05,30828,7.94,71284.0,-15.13,-15.95,-15.95,0,*67
1483567401.29,30829,7.94,71278.5,-15.13,-15.95,-15.99,0,*6A
1483567402.53,30830,7.94,71278.3,-15.09,-15.95,-15.99,0,*69
1483567403.77,30831,7.94,71274.5,-15.09,-15.95,-15.99,0,*68
1483567405.01,30832,7.94,71276.5,-15.09,-15.99,-15.99,0,*67
1483567406.24,30833,7.94,71276.5,-15.09,-15.99,-15.99,0,*66
1483567407.48,30834,7.94,71276.8,-15.09,-15.99,-15.99,0,*61
1483567408.72,30835,7.94,71280.5,-15.09,-15.95,-15.95,0,*60
1483567409.94,30836,7.94,71286.5,-15.07,-15.95,-15.95,0,*6D
1483567411.18,30837,7.94,71284.8,-15.09,-15.99,-15.95,0,*6E
1483567412.42,30838,7.94,71282.3,-15.09,-15.95,-15.99,0,*61
1483567413.65,30839,7.94,71284.0,-15.09,-15.99,-15.95,0,*60
1483567414.89,30840,7.94,71284.8,-15.09,-15.99,-15.95,0,*6E
1483567416.13,30841,7.94,71284.3,-15.09,-15.95,-15.99,0,*6F
1483567417.37,30842,7.94,71284.0,-15.09,-15.99,-15.99,0,*60
1483567418.61,30843,7.94,71284.5,-15.09,-15.99,-15.95,0,*6D
1483567419.84,30844,7.94,71284.5,-15.09,-15.99,-15.99,0,*66
1483567421.08,30845,7.94,71286.0,-15.09,-15.99,-15.95,0,*6B
1483567422.32,30846,7.94,71280.0,-15.09,-15.99,-15.95,0,*68
1483567423.53,30847,7.94,71282.8,-15.07,-15.95,-15.95,0,*6B
1483567424.77,30848,7.94,71280.5,-15.09,-15.95,-15.99,0,*66
1483567426.01,30849,7.94,71280.0,-15.09,-15.99,-15.99,0,*6B
1483567427.22,30850,7.94,71278.8,-15.07,-15.95,-15.95,0,*6D
1483567428.46,30851,7.94,71282.5,-15.09,-15.95,-15.99,0,*6E
1483567429.67,30852,7.94,71280.5,-15.07,-15.95,-15.99,0,*63
1483567430.89,30853,7.94,71284.3,-15.07,-15.95,-15.95,0,*6E
1483567432.12,30854,7.94,71290.5,-15.09,-15.99,-15.99,0,*67
1483567433.36,30855,7.94,71296.0,-15.09,-15.99,-15.99,0,*66
1483567434.57,30856,7.94,71296.8,-15.07,-15.95,-15.95,0,*6B
1483567435.81,30857,7.94,71302.0,-15.07,-15.95,-15.89,0,*67
1483567437.03,30858,7.94,71304.5,-15.07,-15.95,-15.95,0,*65
1483567438.24,30859,7.94,71308.3,-15.07,-15.95,-15.95,0,*64
1483567439.51,30860,7.94,71310.8,-15.07,-15.89,-15.89,0,*6E
1483567440.8,30861,7.94,71312.5,-15.09,-15.85,-15.85,0,*61
1483567442.04,30862,7.94,71316.3,-15.07,-15.81,-15.95,0,*69
1483567443.26,30863,7.94,71318.5,-15.07,-15.95,-15.95,0,*6D
1483567444.49,30864,7.94,71318.5,-15.07,-15.95,-15.89,0,*67
1483567445.71,30865,7.94,71320.0,-15.07,-15.95,-15.95,0,*6B
1483567446.93,30866,7.94,71320.8,-15.07,-15.95,-15.95,0,*68
1483567448.16,30867,7.94,71320.0,-15.07,-15.95,-15.89,0,*64
1483567449.38,30868,7.94,71320.3,-15.07,-15.95,-15.95,0,*66
1483567450.62,30869,7.94,71320.3,-15.07,-15.89,-15.95,0,*6A
1483567451.86,30870,7.94,71316.5,-15.07,-15.81,-15.95,0,*6A
1483567453.12,30871,7.94,71318.8,-15.07,-15.81,-15.89,0,*66
1483567454.39,30872,7.94,71322.5,-15.07,-15.81,-15.81,0,*6D
1483567455.65,30873,7.94,71324.3,-15.07,-15.81,-15.89,0,*64
1483567456.91,30874,7.94,71318.8,-15.07,-15.81,-15.89,0,*63
1483567458.15,30875,7.94,71318.8,-15.07,-15.89,-15.95,0,*67
1483567459.39,30876,7.94,71316.0,-15.03,-15.89,-15.95,0,*60
1483567460.61,30877,7.94,71316.0,-15.03,-15.95,-15.99,0,*60
1483567461.85,30878,7.94,71310.8,-15.07,-15.95,-16.09,0,*61
1483567463.08,30879,7.94,71310.5,-15.07,-15.99,-16.09,0,*6C
1483567464.29,30880,7.94,71304.0,-15.03,-15.99,-15.99,0,*64
1483567465.53,30881,7.94,71304.5,-15.05,-15.99,-15.99,0,*63
1483567466.76,30882,7.94,71296.3,-15.05,-15.99,-15.99,0,*60
1483567468.0,30883,7.94,71302.0,-15.05,-15.95,-15.95,0,*61
1483567469.25,30884,7.94,71302.5,-15.05,-15.95,-15.95,0,*66
1483567470.47,30885,7.94,71300.3,-15.03,-15.95,-15.95,0,*61
1483567471.68,30886,7.94,71300.3,-15.07,-15.95,-15.99,0,*6A
1483567472.95,30887,7.94,71298.0,-15.05,-15.95,-16.13,0,*68
1483567474.21,30888,7.94,71294.5,-15.05,-15.99,-16.09,0,*60
1483567475.5,30889,7.94,71288.3,-15.05,-16.23,-16.27,0,*6F
1483567476.77,30890,7.94,71278.5,-15.05,-16.23,-16.37,0,*66
1483567478.06,30891,7.94,71286.5,-15.05,-16.23,-16.27,0,*66
1483567479.32,30892,7.94,71294.5,-15.05,-16.37,-16.51,0,*61
1483567480.61,30893,7.94,71300.0,-15.09,-16.69,-16.69,0,*6C
1483567481.83,30894,7.94,71272.5,-15.07,-16.79,-16.79,0,*65
1483567483.05,30895,7.94,71262.3,-15.03,-16.79,-16.83,0,*65
1483567484.3,30896,7.94,71266.3,-15.09,-16.75,-16.75,0,*69
1483567485.52,30897,7.94,71258.8,-15.07,-16.75,-16.59,0,*68
1483567486.79,30898,7.94,71256.3,-15.09,-16.59,-16.69,0,*64
1483567488.0,30899,7.94,71260.5,-15.07,-16.41,-16.41,0,*68
1483567489.25,30900,7.94,71266.3,-15.09,-16.41,-16.41,0,*67
1483567490.5,30901,7.94,71268.0,-15.09,-16.41,-16.41,0,*66
1483567491.75,30902,7.94,71278.8,-15.09,-16.55,-16.59,0,*69
1483567493.0,30903,7.94,71302.0,-15.09,-16.45,-16.59,0,*69
1483567494.27,30904,7.94,71292.8,-15.09,-16.59,-16.69,0,*60
1483567495.51,30905,7.94,71284.3,-15.09,-16.59,-16.55,0,*6E
1483567496.76,30906,7.94,71242.5,-15.09,-16.83,-16.75,0,*68
1483567498.03,30907,7.94,71214.3,-15.09,-16.59,-16.69,0,*63
1483567499.28,30908,7.94,71246.8,-15.09,-16.75,-16.75,0,*6F
1483567500.57,30909,7.94,71232.0,-15.09,-16.69,-16.69,0,*6E
1483567501.82,30910,7.94,71226.3,-15.13,-16.59,-16.59,0,*6D
1483567503.12,30911,7.94,71216.5,-15.13,-16.69,-16.69,0,*6C
1483567504.39,30912,7.94,71230.8,-15.13,-16.69,-16.75,0,*62
1483567505.64,30913,7.94,71246.3,-15.13,-16.83,-16.75,0,*67
1483567506.85,30914,7.94,71214.5,-15.15,-16.89,-16.89,0,*6F
1483567508.1,30915,7.94,71204.5,-15.13,-16.83,-16.83,0,*68
1483567509.34,30916,7.94,71230.5,-15.13,-16.89,-16.97,0,*64
1483567510.55,30917,7.94,71260.0,-15.15,-16.89,-16.93,0,*67
1483567511.82,30918,7.94,71270.5,-15.15,-17.07,-17.07,0,*63
1483567513.06,30919,7.94,71276.8,-15.15,-16.93,-17.03,0,*6A
1483567514.33,30920,7.94,71268.8,-15.17,-16.89,-17.03,0,*69
1483567515.62,30921,7.94,71234.5,-15.17,-17.03,-17.03,0,*6B
1483567516.89,30922,7.94,71236.8,-15.19,-17.11,-17.07,0,*61
1483567518.19,30923,7.94,71238.8,-15.17,-17.03,-17.07,0,*6D
1483567519.43,30924,7.94,71254.3,-15.19,-16.97,-17.11,0,*6F
1483567520.65,30925,7.94,71248.0,-15.19,-16.79,-16.83,0,*64
1483567521.89,30926,7.94,71158.8,-15.19,-16.79,-16.69,0,*63
1483567523.1,30927,7.94,71092.8,-15.19,-16.83,-16.93,0,*62
1483567524.4,30928,7.94,71102.8,-15.17,-16.65,-16.65,0,*62
1483567525.62,30929,7.94,71114.3,-15.19,-16.55,-16.55,0,*6D
1483567526.85,30930,7.94,71082.3,-15.17,-16.45,-16.45,0,*6B
1483567528.1,30931,7.94,71096.3,-15.17,-16.59,-16.59,0,*6A
1483567529.34,30932,7.94,71154.8,-15.19,-16.79,-16.69,0,*66
1483567530.61,30933,7.94,71170.3,-15.19,-16.51,-16.65,0,*61
1483567531.85,30934,7.94,71180.3,-15.19,-16.41,-16.51,0,*60
1483567533.12,30935,7.94,71220.3,-15.19,-16.13,-16.27,0,*67
1483567534.33,30936,7.94,71246.0,-15.19,-16.37,-16.41,0,*62
1483567535.57,30937,7.94,71274.5,-15.19,-16.27,-16.37,0,*63
1483567536.86,30938,7.94,71282.8,-15.17,-16.23,-16.23,0,*63
1483567538.13,30939,7.94,71288.5,-15.19,-16.13,-16.23,0,*6F
1483567539.39,30940,7.94,71294.8,-15.19,-16.23,-16.23,0,*62
1483567540.66,30941,7.94,71296.0,-15.19,-16.23,-16.23,0,*63
1483567541.92,30942,7.94,71304.5,-15.19,-16.13,-16.23,0,*63
1483567543.22,30943,7.94,71306.0,-15.17,-16.09,-16.17,0,*60
1483567544.52,30944,7.94,71310.5,-15.17,-16.09,-16.09,0,*68
1483567545.82,30945,7.94,71304.8,-15.17,-16.09,-16.09,0,*69
1483567547.09,30946,7.94,71300.8,-15.17,-16.03,-16.09,0,*60
1483567548.36,30947,7.94,71294.5,-15.17,-16.03,-16.17,0,*6E
1483567549.65,30948,7.94,71292.3,-15.17,-16.23,-16.23,0,*64
1483567550.93,30949,7.94,71292.0,-15.17,-16.23,-16.31,0,*66
1483567552.22,30950,7.94,71296.8,-15.17,-16.23,-16.31,0,*6E
1483567553.49,30951,7.94,71296.0,-15.15,-16.17,-16.31,0,*6A
1483567554.77,30952,7.94,71294.8,-15.17,-16.23,-16.23,0,*6F
1483567556.03,30953,7.94,71298.3,-15.17,-16.23,-16.45,0,*6E
1483567557.29,30954,7.94,71294.8,-15.17,-16.31,-16.37,0,*6F
1483567558.58,30955,7.94,71290.8,-15.17,-16.23,-16.23,0,*68
1483567559.87,30956,7.94,71288.5,-15.17,-16.23,-16.17,0,*6C
1483567561.16,30957,7.94,71290.3,-15.17,-16.23,-16.31,0,*69
1483567562.45,30958,7.94,71290.0,-15.17,-16.23,-16.17,0,*62
1483567563.74,30959,7.94,71282.0,-15.17,-16.23,-16.23,0,*64
1483567565.0,30960,7.94,71280.5,-15.19,-16.23,-16.23,0,*60
1483567566.3,30961,7.94,71268.3,-15.17,-16.09,-16.17,0,*60
1483567567.6,30962,7.94,71256.8,-15.17,-16.17,-16.17,0,*6C
1483567568.9,30963,7.94,71246.8,-15.17,-16.09,-16.09,0,*6D
1483567570.2,30964,7.94,71232.8,-15.17,-16.09,-16.09,0,*6A
1483567571.5,30965,7.94,71238.5,-15.17,-16.09,-16.17,0,*64
1483567572.79,30966,7.94,71242.5,-15.17,-16.09,-16.17,0,*67
1483567574.09,30967,7.94,71246.0,-15.17,-16.17,-16.17,0,*69
1483567575.39,30968,7.94,71240.8,-15.17,-16.17,-16.17,0,*66
1483567576.65,30969,7.94,71216.8,-15.19,-16.51,-16.51,0,*69
1483567577.88,30970,7.94,71226.0,-15.17,-16.37,-16.45,0,*6A
1483567579.17,30971,7.94,71226.3,-15.17,-16.23,-16.31,0,*6D
1483567580.46,30972,7.94,71226.0,-15.17,-16.23,-16.17,0,*6A
1483567581.7,30973,7.94,71228.0,-15.15,-16.31,-16.37,0,*68
1483567582.96,30974,7.94,71228.5,-15.15,-16.23,-16.23,0,*69
1483567584.25,30975,7.94,71236.0,-15.17,-16.31,-16.31,0,*6A
1483567585.5,30976,7.94,71242.0,-15.17,-16.31,-16.37,0,*6F
1483567586.74,30977,7.94,71240.0,-15.17,-16.37,-16.37,0,*68
1483567588.03,30978,7.94,71238.5,-15.17,-16.31,-16.23,0,*64
1483567589.27,30979,7.94,71244.5,-15.19,-16.37,-16.27,0,*69
1483567590.56,30980,7.94,71236.8,-15.17,-16.23,-16.17,0,*67
1483567591.8,30981,7.94,71246.0,-15.17,-16.45,-16.37,0,*64
1483567593.08,30982,7.94,71248.3,-15.17,-16.31,-16.23,0,*61
1483567594.37,30983,7.94,71248.0,-15.17,-16.23,-16.23,0,*63
1483567595.64,30984,7.94,71260.8,-15.15,-16.23,-16.09,0,*6E
1483567596.91,30985,7.94,71262.0,-15.13,-16.13,-16.03,0,*60
1483567598.19,30986,7.94,71262.5,-15.15,-16.09,-16.09,0,*64
1483567599.46,30987,7.94,71264.0,-15.15,-16.17,-16.09,0,*6A
1483567600.73,30988,7.94,71282.5,-15.15,-16.09,-16.09,0,*6A
1483567602.01,30989,7.94,71286.0,-15.15,-16.17,-16.09,0,*64
1483567603.28,30990,7.94,71284.8,-15.15,-16.17,-16.17,0,*63
1483567604.52,30991,7.94,71286.3,-15.15,-16.37,-16.31,0,*64
1483567605.73,30992,7.94,71290.8,-15.15,-16.37,-16.37,0,*61
1483567607.03,30993,7.94,71284.3,-15.17,-16.09,-16.09,0,*62
1483567608.33,30994,7.94,71288.0,-15.17,-16.09,-16.09,0,*65
1483567609.6,30995,7.94,71286.5,-15.17,-16.03,-16.09,0,*6E
1483567610.81,30996,7.94,71282.0,-15.15,-16.03,-16.03,0,*65
1483567612.03,30997,7.94,71274.3,-15.15,-16.03,-16.03,0,*64
1483567613.24,30998,7.94,71274.0,-15.15,-16.03,-16.03,0,*6B
1483567614.52,30999,7.94,71268.5,-15.15,-16.09,-16.09,0,*6A
1483567615.76,31000,7.94,71278.3,-15.13,-16.03,-15.99,0,*64
1483567617.04,31001,7.94,71284.8,-15.15,-16.09,-16.17,0,*6C
1483567618.31,31002,7.94,71284.5,-15.15,-16.09,-16.09,0,*60
1483567619.55,31003,7.94,71288.3,-15.15,-16.03,-16.09,0,*6B
1483567620.82,31004,7.94,71290.3,-15.15,-16.23,-16.23,0,*66
1483567622.08,31005,7.94,71284.8,-15.15,-16.23,-16.31,0,*64
1483567623.38,31006,7.94,71288.0,-15.13,-16.17,-16.13,0,*66
1483567624.64,31007,7.94,71284.5,-15.15,-16.31,-16.31,0,*65
1483567625.88,31008,7.94,71276.0,-15.15,-16.37,-16.31,0,*6C
1483567627.16,31009,7.94,71276.3,-15.13,-16.31,-16.31,0,*6D
1483567628.4,31010,7.94,71282.0,-15.15,-16.31,-16.37,0,*65
1483567629.63,31011,8.0,71278.3,-15.15,-16.31,-16.37,0,*64
1483567630.85,31012,7.94,71278.8,-15.15,-16.37,-16.37,0,*61
1483567632.07,31013,7.94,71290.5,-15.15,-16.45,-16.59,0,*6D
1483567633.29,31014,7.94,71288.5,-15.15,-16.45,-16.59,0,*6A
1483567634.53,31015,7.94,71294.8,-15.13,-16.45,-16.45,0,*60
1483567635.79,31016,7.94,71318.3,-15.15,-16.51,-16.51,0,*65
1483567637.05,31017,7.94,71324.8,-15.15,-16.51,-16.51,0,*64
1483567638.29,31018,7.94,71330.0,-15.17,-16.59,-16.59,0,*69
1483567639.54,31019,7.94,71336.5,-15.17,-16.59,-16.59,0,*68
1483567640.79,31020,7.94,71348.3,-15.17,-16.59,-16.59,0,*62
1483567642.03,31021,7.94,71340.3,-15.17,-16.59,-16.59,0,*63
1483567643.28,31022,7.94,71330.0,-15.17,-16.59,-16.59,0,*60
1483567644.52,31023,7.94,71324.0,-15.17,-16.79,-16.79,0,*61
1483567645.77,31024,7.94,71320.0,-15.17,-16.75,-16.75,0,*66
1483567646.98,31025,7.94,71316.5,-15.19,-16.83,-16.93,0,*68
1483567648.2,31026,7.94,71292.3,-15.19,-16.83,-16.83,0,*6A
1483567649.42,31027,7.94,71258.0,-15.19,-16.83,-16.83,0,*6B
1483567650.66,31028,7.94,71238.0,-15.17,-16.79,-16.79,0,*6A
1483567651.88,31029,7.94,71228.5,-15.19,-16.79,-16.79,0,*65
1483567653.1,31030,7.94,71214.8,-15.19,-16.83,-16.79,0,*68
1483567654.32,31031,7.94,71210.0,-15.19,-16.79,-16.79,0,*6C
1483567655.61,31032,7.94,71204.0,-15.17,-16.65,-16.65,0,*61
1483567656.85,31033,7.94,71212.3,-15.19,-16.79,-16.69,0,*6F
1483567658.11,31034,7.94,71206.3,-15.17,-16.51,-16.45,0,*62
1483567659.37,31035,7.94,71210.8,-15.19,-16.51,-16.51,0,*68
1483567660.63,31036,7.94,71204.0,-15.19,-16.51,-16.51,0,*6B
1483567661.85,31037,7.94,71206.8,-15.19,-16.41,-16.41,0,*6A
1483567663.07,31038,7.94,71210.5,-15.19,-16.37,-16.41,0,*64
1483567664.33,31039,7.94,71220.8,-15.19,-16.51,-16.51,0,*64
1483567665.57,31040,7.94,71230.0,-15.17,-16.45,-16.37,0,*61
1483567666.84,31041,7.94,71236.5,-15.19,-16.27,-16.27,0,*6B
1483567668.12,31042,7.94,71232.3,-15.17,-16.23,-16.23,0,*66
1483567669.36,31043,7.94,71232.8,-15.19,-16.37,-16.51,0,*69
1483567670.57,31044,7.94,71218.3,-15.19,-16.45,-16.45,0,*6E
1483567671.83,31045,7.94,71230.0,-15.17,-16.51,-16.45,0,*64
1483567673.09,31046,7.94,71224.0,-15.17,-16.59,-16.51,0,*6A
1483567674.31,31047,7.94,71216.5,-15.19,-16.41,-16.41,0,*6D
1483567675.54,31048,7.94,71212.3,-15.19,-16.41,-16.41,0,*62
1483567676.78,31049,7.94,71208.8,-15.19,-16.51,-16.41,0,*62
1483567678.04,31050,7.94,71210.8,-15.19,-16.51,-16.51,0,*6B
1483567679.28,31051,7.94,71212.8,-15.19,-16.41,-16.51,0,*6B
1483567680.52,31052,7.94,71228.0,-15.19,-16.37,-16.51,0,*69
1483567681.75,31053,7.94,71246.8,-15.19,-16.27,-16.37,0,*69
1483567683.01,31054,7.94,71272.3,-15.17,-16.31,-16.45,0,*62
1483567684.27,31055,7.94,71260.8,-15.19,-16.51,-16.51,0,*6E
1483567685.53,31056,7.94,71264.8,-15.19,-16.51,-16.51,0,*6D
1483567686.75,31057,7.94,71266.5,-15.19,-16.37,-16.37,0,*6C
1483567688.01,31058,7.94,71260.3,-15.19,-16.27,-16.27,0,*63
1483567689.25,31059,7.94,71264.0,-15.19,-16.27,-16.41,0,*62
1483567690.47,31060,7.94,71274.0,-15.19,-16.41,-16.41,0,*68
1483567691.71,31061,7.94,71276.0,-15.19,-16.27,-16.41,0,*69
1483567692.98,31062,7.94,71272.8,-15.19,-16.27,-16.27,0,*6A
1483567694.19,31063,7.94,71276.0,-15.19,-16.37,-16.41,0,*6A
1483567695.43,31064,7.94,71272.3,-15.19,-16.27,-16.37,0,*6D
1483567696.67,31065,7.94,71272.5,-15.19,-16.27,-16.37,0,*6C
1483567697.93,31066,7.94,71276.0,-15.19,-16.27,-16.27,0,*6E
1483567699.2,31067,7.94,71274.3,-15.19,-16.13,-16.23,0,*6C
1483567700.47,31068,7.94,71276.0,-15.19,-16.23,-16.13,0,*63